Location: Chmeln�
(49.6483°N, 14.9871°E)
Time: 09:00:42
(UTC+00:00)

SPOT 1/Viking Rocket - Pass Details

Date: 18 September 2020
Orbit: 777 x 794 km, 98.5° (Epoch: 24 October)

Event Time Altitude Azimuth Distance (km) Brightness Sun altitude
Exits shadow 19:33:45 46° 72° (ENE) 1,048 3.9 -23.4°
Maximum altitude 19:33:53 46° 67° (ENE) 1,046 3.9 -23.4°
Drops below altitude 10° 19:38:50 10° 356° (N) 2,352 6.5 -24.0°
Sets 19:41:13 0° 350° (N) 3,282 7.4 -24.4°
